sat.trackr.live / text

‹ back to catalog

STARLINK-35486

NORAD 66253 · 2025-245V

PAYLOAD ACTIVE UNKNOWN

§ Identity

Operator
Country
US
Launch date
2025-10-29
Launch site
AFETR
Launch vehicle
Mass (kg)
RCS (m²)

Purposes: comms

External: N2YO · Heavens-Above · Gunter

§ Orbital elements

Epoch: 2026-05-24T19:30:16.752960Z

Period
94.01 min
Inclination
53.1595°
Eccentricity
0.0000830
Mean motion
15.31725412 rev/d
Perigee alt
470.1 km
Apogee alt
471.2 km
Semi-major
6,848.8 km
B*
1.0100e-3
RAAN
290.1421°
Arg perigee
40.1314°
Mean anomaly
319.9749°
Rev number
3,270

§ Raw data

STARLINK-354861 66253U 25245V   26144.81269390  .00031132  00000+0  10100-2 0  99982 66253  53.1595 290.1421 0000830  40.1314 319.9749 15.31725412 32700

JSON: /api/v1/satellites/66253 · /tle

For live sub-satellite position, see the globe view (requires WebGL).

§ Visibility from observer

Set your observer location to see the next 7 days of passes ≥ 10°. The values pass through the URL so the page stays shareable.

No JS? Fill the form by hand. The geolocation button needs JavaScript.